Tracking 17694 objects as of 29-May-2016
HD Live streaming from Space Station
objects crossing your sky now

ABS 3

Track ABS 3 now!
ABS 3 is classified as:


NORAD ID: 24901
Int'l Code: 1997-042A
Perigee: 35,738.8 km
Apogee: 35,791.3 km
Inclination: 4.2 °
Period: 1,434.6 minutes
Semi major axis: 42136 km
RCS: 10 m2 (large)
Launch date: August 19, 1997
Source: People's Republic of China (PRC)
Launch site: Xichang Space Center, China (XSC)

Most powerful telecommunications satellite in service in the Asia-Pacific region; 30 C-band, 24 Ku-band transponders; 190 high fidelity channels and 50,000 simultaneous telephone links.
Your satellite tracking list
Your tracking list is empty





NASA's NSSDC Master Catalog

Two Line Element Set (TLE):
1 24901U 97042A   16148.84164072  .00000116  00000-0  00000+0 0  9997
2 24901   4.1810  65.5628 0006219 352.7098 147.8289  1.00374221 68706
Source of the keplerian elements: AFSPC

N2YO: 547